CAPE
81 92 79 60 60 38 48 26 2 1 0 11 0 0 0 15 16 9 2 0 0 0 0 0 0 0 0 42 117 173 78 1 0 0 1 1 0 0 0 0 0 0 0 0
72 64 14 93 61 44 40 29 10 5 1 0 0 12 10 0 0 10 12 6 0 0 0 0 0 0 0 2 22 55 95 1 3 0 0 0 1 0 0 0 0 0 0 0
34 7 10 31 58 70 49 41 36 30 5 3 6 5 3 0 16 7 0 9 1 0 0 0 0 0 0 0 4 11 80 0 0 1 0 0 0 0 0 0 0 0 0 0
19 6 7 24 55 61 76 32 30 26 57 61 29 79 1 0 6 16 15 18 1 0 0 0 0 0 0 0 0 2 53 0 2 1 0 0 0 0 0 0 0 0 0 0
4 1 21 37 44 38 37 35 32 38 64 75 48 81 0 0 0 0 23 9 0 0 0 0 0 0 0 0 0 0 23 0 2 0 0 0 1 0 0 0 0 0 0 0
14 1 25 1 0 15 14 37 28 43 75 76 25 54 0 0 0 1 14 6 0 0 0 0 0 0 0 0 0 0 1 3 0 0 0 0 0 1 0 0 0 0 0 0
21 0 1 3 40 26 14 15 20 39 63 35 0 33 2 0 0 0 33 11 0 1 1 0 0 0 0 0 0 0 0 0 0 2 4 1 1 0 1 0 0 0 0 0
20 4 0 2 6 11 11 24 19 27 50 37 16 7 0 0 0 27 0 2 5 6 1 0 0 0 0 0 0 0 0 0 0 3 3 4 1 4 4 1 0 0 0 0
17 0 0 0 10 8 31 35 30 14 4 34 24 0 1 2 0 0 0 0 4 0 0 0 0 0 0 0 0 0 0 0 0 1 3 3 1 2 3 3 0 0 0 0
7 15 0 0 1 26 29 28 54 65 20 30 11 19 5 0 2 1 2 0 0 0 0 0 0 0 0 1 1 0 0 0 0 3 1 1 1 0 2 2 0 0 0 0
38 29 1 6 8 16 34 5 10 71 31 35 20 2 9 5 7 4 3 3 0 0 1 3 2 1 2 1 1 1 0 0 0 0 5 0 0 0 0 0 0 0 0 0
16 34 11 3 2 13 29 21 10 22 3 26 6 1 8 8 7 8 5 2 3 4 0 0 2 1 1 4 4 3 2 1 0 0 0 0 0 0 1 0 0 0 0 0
24 26 21 8 14 25 3 18 3 9 8 2 25 4 13 7 6 7 6 6 3 2 2 2 4 5 4 3 2 2 3 2 0 0 0 1 1 1 1 1 0 0 0 0
25 28 6 10 3 19 19 6 3 4 16 13 2 1 3 3 3 4 5 7 5 5 3 5 7 5 5 4 3 2 2 2 2 0 0 0 0 0 0 0 0 0 0 0
5 7 2 3 5 5 4 1 2 2 2 3 4 1 3 6 5 8 7 3 4 5 5 3 4 6 5 5 5 4 3 2 2 1 1 0 0 0 0 0 0 0 0 0
17 4 0 0 1 11 2 0 0 0 0 0 5 2 6 9 6 4 5 5 6 5 5 5 4 5 5 4 5 5 5 4 2 1 2 2 1 0 0 0 0 0 0 0
10 10 14 0 0 2 8 2 1 1 1 1 1 3 4 2 6 4 4 6 5 4 7 6 4 8 6 3 4 3 3 1 2 2 2 1 1 0 0 0 0 0 0 0
13 4 18 3 0 2 1 1 3 1 0 2 2 2 3 2 7 2 4 5 4 5 5 3 5 4 5 3 3 2 4 1 1 0 2 1 1 0 0 0 0 0 0 0
3 10 12 7 5 0 2 3 2 1 0 1 1 0 0 0 2 1 2 7 5 4 5 6 6 5 3 4 4 3 1 1 1 1 2 2 2 1 0 0 0 0 0 0
1 2 8 5 4 2 2 0 0 1 1 2 3 1 3 0 1 4 3 6 5 3 3 5 4 3 2 5 2 1 2 2 2 2 2 1 1 0 1 1 1 1 0 0
1 2 5 9 8 1 0 0 0 1 2 1 2 3 2 2 4 3 3 2 3 4 2 3 4 4 3 4 3 1 1 2 2 1 1 1 1 1 1 1 1 1 1 1
4 3 11 4 4 3 0 0 0 0 0 2 2 3 1 2 0 1 2 0 0 0 3 4 3 4 2 1 2 1 0 1 1 0 0 1 1 2 1 1 1 1 1 1
5 1 6 1 1 0 0 0 0 0 1 2 2 1 0 0 0 0 0 0 0 0 0 1 3 1 0 0 1 1 1 1 0 0 0 0 1 1 1 3 1 1 2 1
0 0 0 0 0 0 0 0 0 0 1 0 0 0 0 0 0 0 0 0 0 0 0 0 0 0 0 0 0 0 0 0 1 1 0 0 0 1 1 2 1 3 2 2
1 0 0 0 0 0 0 0 0 0 0 0 0 0 0 0 0 0 0 0 0 0 0 0 0 0 0 0 0 0 0 0 0 0 0 0 0 1 1 1 2 1 0 1
0 0 0 0 0 0 0 0 0 0 0 0 0 0 0 0 0 0 0 0 0 0 0 0 0 0 0 0 0 0 0 0 0 0 0 0 0 0 0 0 1 1 1 2
CIN
0 0 0 0 -1 0 0 0 0 0 0 0 0 0 0 -1 -1 0 0 0 0 0 0 0 0 0 0 -151 -80 -28 -107 -3 -1 0 0 0 0 0 0 0 0 0 0 0
0 0 -31 0 -2 -2 -1 0 0 -1 -1 -1 0 -3 -1 0 0 -1 0 0 0 0 0 0 0 0 0 -76 -184 -111 -66 -2 -1 0 0 0 0 0 0 0 0 0 0 0
0 -36 -1 -1 -1 -1 -1 0 0 0 0 0 0 0 0 -3 -1 -1 0 -2 -1 0 0 0 0 0 0 0 -191 -159 -74 -1 -1 -1 -1 0 0 0 0 0 0 0 0 0
0 -8 -1 -1 0 0 0 -1 -1 -1 0 0 0 0 0 0 -1 -1 0 -1 0 0 0 0 0 0 0 0 0 -132 -70 0 -1 0 0 0 0 0 0 0 0 0 0 0
-5 -1 0 0 -1 -1 0 -1 -1 0 0 0 0 0 0 0 0 0 0 0 0 0 0 0 0 0 0 0 0 0 -114 -5 -1 0 0 0 -1 0 0 0 0 0 0 0
-2 -6 -1 -9 0 0 0 -1 -1 -1 0 0 0 0 0 0 0 0 -1 0 0 0 0 0 0 0 0 0 0 0 -18 -152 -1 0 0 -1 0 0 0 0 0 0 0 0
-1 0 -6 -5 0 -1 0 0 0 0 0 0 0 -1 0 0 0 0 -1 -1 0 0 0 0 0 0 0 0 0 0 0 0 0 0 0 -1 0 0 0 0 0 0 0 0
0 0 0 -1 0 0 0 0 0 0 0 0 -3 -1 0 0 0 -17 0 -6 -2 -2 -1 0 0 0 0 0 0 0 0 0 0 0 0 0 0 -1 -1 -1 0 0 0 0
0 0 0 -1 -5 -1 0 0 0 0 0 0 0 -4 0 -2 0 0 0 0 -6 0 0 0 0 0 0 0 0 0 0 0 0 -1 -1 -1 -1 0 -1 -2 0 0 0 0
0 0 0 0 -4 -2 0 0 0 0 0 0 0 -2 0 0 0 0 0 0 0 0 0 0 0 0 0 0 0 0 0 0 0 -3 -1 -1 -1 -2 -3 -6 0 0 0 0
0 0 0 0 -4 0 0 0 0 0 -1 0 0 0 0 0 0 0 0 0 0 0 0 0 0 0 0 0 0 0 0 0 0 0 -2 -2 -1 0 0 0 0 0 0 0
0 0 0 0 -8 -16 -4 0 0 0 -4 -1 -3 0 0 0 0 0 0 0 0 0 0 0 0 0 0 0 0 0 0 0 0 0 0 0 0 0 0 0 0 0 0 0
0 0 0 0 -13 -1 0 0 0 0 0 -1 0 0 0 0 0 0 0 0 0 0 0 0 0 0 0 0 0 0 0 0 0 0 0 0 0 0 0 0 0 0 0 0
0 0 0 0 0 0 0 0 0 0 0 -1 -1 0 0 0 0 0 0 0 0 0 0 0 0 0 0 0 0 0 0 0 0 0 0 0 0 0 0 0 0 0 0 0
-1 0 -1 0 0 0 0 0 0 0 0 0 0 0 0 0 0 0 0 0 0 0 0 0 0 0 0 0 0 0 0 0 0 0 0 0 0 0 0 0 0 0 0 0
0 0 0 0 0 0 0 0 0 0 0 0 0 0 0 0 0 0 0 0 0 0 0 0 0 0 0 0 0 0 0 0 0 0 0 0 0 0 0 0 0 0 0 0
0 0 0 0 0 0 0 0 0 0 0 0 0 0 0 0 0 0 0 0 0 0 0 0 0 0 0 0 0 0 0 0 0 0 0 0 0 0 0 0 0 0 0 0
0 0 0 0 0 0 0 0 0 0 0 0 0 0 0 0 0 0 0 0 0 0 0 0 0 0 0 0 0 0 0 0 0 0 0 0 0 0 0 0 0 0 0 0
0 0 0 0 0 0 0 0 0 0 0 0 0 0 0 0 0 0 0 0 0 0 0 0 0 0 0 0 0 0 0 0 0 0 0 0 0 0 0 0 0 0 0 0
0 0 0 0 0 0 0 0 0 0 0 0 0 0 0 0 0 0 0 0 0 0 0 0 0 0 0 0 0 0 0 0 0 0 0 0 0 0 0 0 0 0 0 0
0 0 0 0 0 0 0 0 0 0 0 0 0 0 0 0 0 0 0 0 0 0 0 0 0 0 0 0 0 0 0 0 0 0 0 0 0 0 0 0 0 0 0 0
0 0 0 0 0 0 0 0 0 0 0 0 0 0 0 0 0 0 0 -1 0 0 0 0 0 0 0 0 0 0 0 0 0 0 0 0 0 0 0 0 0 0 0 0
0 0 0 0 0 0 0 0 0 0 0 0 0 0 0 0 0 0 0 0 0 0 0 0 0 0 0 0 0 0 0 0 0 0 0 0 0 0 0 0 0 0 0 0
-1 0 0 0 0 0 0 0 0 0 0 0 0 0 0 0 0 0 0 0 0 0 0 0 0 0 0 0 0 0 0 0 0 0 0 0 0 0 0 0 0 0 0 0
0 0 0 0 0 0 0 0 0 0 0 0 0 0 0 0 0 0 0 0 0 0 0 0 0 0 0 0 0 0 0 0 0 0 0 0 0 0 0 0 0 0 0 0
0 0 0 0 0 0 0 0 0 0 0 0 0 0 0 0 0 0 0 0 0 0 0 0 0 0 0 0 0 0 0 0 0 0 0 0 0 0 0 0 0 0 0 0
Wind_Speed
17 13 17 23 25 28 27 27 33 29 28 28 32 29 28 24 26 28 25 27 24 24 24 22 18 16 15 14 15 17 18 17 12 10 11 11 11 10 8 7 10 12 9 11
19 21 26 24 23 23 21 23 26 27 31 27 28 28 25 29 29 26 27 23 24 24 21 19 14 13 16 17 18 18 17 17 14 10 10 9 10 8 9 9 10 11 12 13
21 28 24 25 23 25 24 25 25 27 27 28 28 31 29 28 28 29 26 24 25 23 19 16 13 13 13 15 17 17 17 18 15 15 9 5 6 6 7 9 10 13 15 12
16 20 17 21 26 24 25 25 25 26 23 16 20 21 28 27 28 29 27 25 23 24 21 18 18 15 15 14 13 15 14 16 15 15 12 13 12 11 10 11 10 11 14 14
17 20 20 21 24 22 21 21 20 22 20 21 21 15 18 24 28 24 27 27 25 24 22 21 19 15 12 13 12 14 14 15 15 16 15 14 15 11 9 9 14 14 14 15
23 18 16 15 19 17 17 20 17 17 15 17 19 18 18 22 25 19 26 27 25 25 22 19 16 12 9 8 10 10 13 16 17 18 19 19 20 16 12 13 12 12 12 12
17 11 4 7 10 11 17 11 9 10 12 15 16 17 20 15 27 28 24 24 22 21 21 15 17 14 12 10 13 12 15 17 19 20 21 22 22 21 18 16 13 15 12 12
14 19 14 9 20 13 22 8 8 10 12 15 16 8 18 24 28 9 8 11 12 13 2 4 3 3 4 2 4 9 12 15 16 18 20 18 17 12 13 15 12 12 13 14
14 15 28 14 4 5 3 7 16 13 18 13 12 20 23 16 24 17 10 8 11 12 8 7 8 8 7 8 8 9 7 10 13 15 14 15 13 15 14 15 14 11 13 11
8 20 9 10 15 1 11 11 6 6 5 13 12 9 9 14 11 9 10 11 10 9 6 6 7 7 8 8 8 9 9 9 7 10 12 11 13 13 13 9 12 12 10 12
12 6 15 17 12 17 7 10 6 7 5 8 10 5 7 10 11 9 10 9 7 7 8 8 8 8 6 6 6 7 7 8 8 7 8 10 10 11 8 7 7 8 7 7
6 8 13 21 18 1 6 13 12 8 3 6 2 3 5 6 8 9 8 8 10 9 10 9 8 7 7 7 7 7 7 6 5 5 5 4 5 6 7 7 7 10 10 11
7 5 13 11 2 4 11 18 13 12 9 11 6 5 7 8 9 11 10 9 9 10 11 10 9 8 8 7 7 7 7 7 6 4 2 3 4 6 7 7 8 10 11 11
9 7 9 12 17 17 11 20 22 4 4 9 3 6 13 13 14 14 12 12 11 10 11 11 9 8 8 8 7 7 7 6 6 5 4 3 1 2 4 5 8 10 10 11
4 9 12 15 18 17 5 16 20 16 15 8 8 8 14 11 12 14 13 13 14 15 14 13 11 9 8 8 8 8 7 7 6 5 5 4 4 3 4 4 5 6 8 9
5 7 8 14 6 6 5 11 12 12 13 11 9 8 14 8 8 13 14 15 15 15 15 14 13 11 10 9 9 8 9 8 6 6 6 4 3 4 4 4 5 6 6 7
4 5 6 5 7 9 3 9 5 3 10 8 9 7 11 7 8 15 14 14 15 15 14 14 13 11 10 10 10 9 9 8 7 6 6 5 4 4 4 5 5 6 7 8
6 4 4 7 11 1 3 5 3 2 6 8 7 10 10 10 1 12 14 14 14 13 13 12 10 10 10 9 9 9 9 9 8 8 7 6 5 5 5 6 6 6 6 8
5 5 4 5 6 1 3 5 5 5 4 9 9 13 12 14 2 7 15 14 12 12 11 10 9 9 9 8 8 7 8 8 8 8 7 7 6 5 5 6 6 5 6 6
3 6 5 3 5 4 4 9 5 5 2 9 9 10 13 14 6 8 14 13 11 10 10 10 10 9 9 9 9 8 8 8 8 9 8 7 6 6 5 5 5 3 5 5
5 3 5 6 4 2 4 9 4 4 5 7 8 8 9 7 5 9 11 10 10 9 10 11 9 9 10 10 8 8 8 9 8 7 7 7 7 6 6 4 5 4 5 5
4 4 2 3 4 1 5 2 4 3 4 5 6 7 8 7 6 6 6 7 8 10 11 11 9 8 10 11 9 8 9 8 7 6 6 6 6 5 4 4 4 4 3 5
3 2 4 3 3 2 2 2 1 1 3 4 5 5 6 6 8 9 9 10 10 11 10 9 9 8 7 9 9 8 8 7 6 6 5 6 5 5 5 4 3 2 2 2
4 4 4 3 5 4 5 4 2 2 3 3 3 4 5 7 8 8 8 9 9 9 10 9 9 8 8 8 8 8 8 7 6 5 5 4 4 4 4 3 3 1 1 1
10 3 4 6 4 1 6 6 2 3 3 1 1 2 4 6 6 6 7 7 8 8 8 8 8 8 8 9 8 7 7 7 6 4 3 3 3 3 2 2 3 2 3 3
8 8 6 4 6 1 3 8 5 5 3 1 0 1 3 4 5 7 6 6 6 7 8 8 8 8 8 8 8 7 6 5 6 5 2 2 2 1 1 0 2 2 2 1
Wind_Direction
273 285 256 245 244 250 250 253 269 271 274 252 253 266 264 249 246 241 247 240 245 232 229 235 228 199 195 202 203 200 183 190 184 174 171 170 178 178 178 178 172 168 175 187
288 266 260 264 273 276 275 281 277 273 266 266 274 273 272 255 260 249 241 247 242 242 234 228 216 192 190 198 210 206 196 187 192 183 188 183 183 187 175 168 173 178 181 188
272 269 284 285 266 259 255 254 262 267 269 265 266 265 258 262 265 248 257 247 250 253 238 229 220 197 201 206 207 207 197 187 192 198 184 178 150 149 171 179 181 189 184 185
279 277 277 264 256 261 263 262 263 262 267 265 255 261 250 252 255 242 234 241 239 246 247 240 236 198 205 209 209 206 196 188 189 188 183 182 181 184 195 189 182 186 187 182
264 300 289 278 272 269 267 259 262 264 264 270 258 261 265 251 252 245 236 227 231 238 241 235 238 240 206 204 203 197 191 188 187 189 193 194 203 203 182 189 186 187 188 188
273 266 262 265 281 273 269 259 260 262 257 256 245 235 250 234 242 245 229 225 226 231 230 229 234 228 218 179 187 189 190 191 189 192 197 201 206 201 200 188 187 190 189 186
330 334 260 253 287 257 239 223 237 236 218 247 240 226 238 258 226 242 254 215 227 228 230 224 223 219 224 210 183 189 194 200 197 196 201 202 206 208 203 191 192 186 186 191
341 328 333 320 297 289 285 249 237 270 250 272 264 224 242 226 246 209 301 316 238 231 27 303 264 318 349 336 211 195 208 213 206 203 206 206 207 210 211 203 197 194 192 194
320 297 312 306 359 267 352 226 251 247 255 276 273 272 246 258 221 251 321 301 253 66 42 17 20 31 11 357 349 343 293 228 219 213 210 207 205 209 212 207 201 198 192 188
305 298 309 313 316 153 292 318 278 200 259 257 249 270 9 8 11 3 11 19 15 23 21 13 5 6 359 344 332 325 317 311 295 216 207 207 206 206 210 211 196 200 191 178
294 263 291 306 317 315 302 340 326 269 240 277 280 78 4 356 359 360 26 29 22 17 359 2 352 357 343 339 342 333 333 320 296 291 211 204 207 203 196 192 179 155 130 146
320 290 285 293 299 264 331 320 316 290 238 244 255 77 28 11 12 0 10 21 15 22 14 13 14 360 360 1 357 350 341 336 318 283 258 188 180 160 158 161 149 149 156 161
316 260 306 312 166 345 335 344 320 265 254 265 310 88 41 40 22 14 10 18 20 15 12 15 14 15 8 7 3 351 352 348 344 339 305 109 148 159 167 162 156 164 167 173
311 263 265 278 291 312 324 353 351 223 284 268 315 63 10 13 11 7 11 15 20 15 17 15 8 6 9 12 8 0 4 0 355 6 31 48 86 134 160 159 170 176 176 171
272 276 293 285 282 285 11 10 4 16 357 21 55 50 6 9 5 1 3 13 17 16 14 12 4 2 11 11 10 10 14 15 9 20 44 47 49 66 114 143 163 165 176 181
262 281 322 297 305 269 1 15 13 15 358 12 20 60 359 358 24 15 13 13 13 11 6 3 5 4 11 8 4 9 13 15 24 47 35 33 72 86 91 115 140 151 149 152
276 300 308 287 318 302 168 1 23 47 18 334 20 344 334 359 36 24 11 12 10 7 2 359 0 357 10 8 1 9 8 17 32 45 56 50 52 77 81 104 121 137 145 144
282 276 274 292 300 41 75 42 277 128 60 11 359 354 355 342 76 47 21 8 7 2 1 359 357 357 8 7 4 6 11 20 29 37 43 59 67 63 71 90 97 103 123 130
248 272 290 297 314 151 161 30 350 356 42 18 2 356 353 333 183 67 18 5 6 0 353 358 359 2 6 5 3 15 21 23 28 30 25 29 45 68 78 72 77 82 99 105
226 237 265 305 290 350 36 348 338 303 220 10 10 6 356 354 21 7 352 357 360 7 356 360 0 5 8 6 6 22 30 31 28 22 15 24 34 48 49 67 67 60 73 84
309 318 297 310 307 122 38 330 340 266 23 356 358 358 1 11 353 323 337 349 360 7 2 8 3 7 5 359 5 27 30 28 16 15 20 24 30 45 52 52 64 61 84 91
290 319 341 288 264 311 3 238 333 8 335 355 347 1 346 340 348 340 351 355 2 4 8 11 5 8 5 4 6 19 25 6 9 16 25 24 17 28 39 53 57 69 93 110
273 310 309 264 333 94 20 70 81 312 303 330 324 351 341 342 6 9 9 9 10 10 6 4 1 360 12 8 13 14 8 0 1 11 18 21 26 24 25 44 53 68 72 107
225 168 233 315 166 220 187 174 181 230 271 321 331 340 348 356 9 13 19 12 8 8 8 360 359 359 359 0 5 4 356 354 347 2 11 7 8 27 33 27 20 67 92 116
278 213 250 257 232 204 223 223 188 189 208 295 12 4 20 7 14 7 16 10 2 0 1 1 359 350 350 346 349 351 344 344 344 348 352 354 9 9 28 31 20 16 26 357
203 225 206 250 140 232 124 177 171 194 182 146 207 124 48 23 357 353 4 1 346 344 351 354 353 343 335 338 335 333 335 335 326 318 320 344 328 355 357 296 120 65 10 202